contact:dominique.lefevre@mio.osupytheas.fr, maurice.libes@osupytheas.fr, didier.mallarino@osupytheas.fr
Project:EMSO http://www.emso-fr.org/EMSO-France
Depth: 2436.0 m
Title:EMSO Ligure Ouest : Data MII capteur AQUADOPP
Date,Latitude,Longitude,X_East,Y_North,Z_Up,Amplitude_X,Amplitude_Y,Amplitude_Z,Batterie,SoundSpeed,Heading,Pitch,Roll,Pressure,TIS,Speed,Direction
, degrees North, degrees East, m.s-1, m.s-1,m.s-1, 1, 1, 1, Volt, m.s-1, degree, degree, degree, dbar, degree_C, m.s-1, degree
2021-08-09T00:04:03,42.805,6.029,0.02,-0.006,-0.004,101.0,102.0,100.0,13.3,1505.2,328.4,-0.7,1.8,2470.657,13.28,0.02,106.7
2021-08-09T00:07:03,42.805,6.029,0.033,-0.035,0.001,103.0,103.0,101.0,13.3,1505.2,330.4,-0.7,1.8,2470.646,13.28,0.048,136.7
2021-08-09T00:10:03,42.805,6.029,0.025,-0.018,-0.012,104.0,102.0,101.0,13.3,1505.2,329.9,-0.7,1.8,2470.657,13.28,0.03,125.8
2021-08-09T00:13:03,42.805,6.029,0.04,-0.01,-0.013,102.0,103.0,101.0,13.4,1505.2,329.5,-0.8,1.8,2470.627,13.28,0.041,104.0
2021-08-09T00:16:03,42.805,6.029,0.032,-0.018,-0.012,102.0,103.0,101.0,13.4,1505.2,330.3,-0.8,1.8,2470.604,13.28,0.036,119.4
2021-08-09T00:19:03,42.805,6.029,0.018,-0.006,0.005,103.0,102.0,101.0,13.4,1505.2,331.2,-0.7,1.8,2470.621,13.28,0.018,108.4
2021-08-09T00:22:03,42.805,6.029,0.008,-0.02,0.0,102.0,103.0,100.0,13.4,1505.2,327.3,-0.8,1.9,2470.615,13.28,0.021,158.2
2021-08-09T00:25:03,42.805,6.029,0.019,-0.005,-0.01,102.0,104.0,101.0,13.4,1505.2,329.3,-0.7,1.8,2470.665,13.28,0.019,104.7
2021-08-09T00:28:03,42.805,6.029,0.026,-0.009,-0.002,102.0,104.0,100.0,13.4,1505.2,326.0,-0.7,1.8,2470.63,13.28,0.027,109.1
2021-08-09T00:31:03,42.805,6.029,0.014,-0.022,-0.02,101.0,103.0,100.0,13.4,1505.2,326.7,-0.8,1.8,2470.608,13.28,0.026,147.5
2021-08-09T00:34:03,42.805,6.029,0.036,-0.043,-0.025,104.0,102.0,100.0,13.4,1505.2,330.8,-0.7,1.8,2470.566,13.28,0.056,140.1
2021-08-09T00:37:03,42.805,6.029,0.03,-0.013,-0.02,102.0,102.0,102.0,13.4,1505.2,330.2,-0.8,1.8,2470.587,13.28,0.032,113.4
2021-08-09T00:40:03,42.805,6.029,0.042,-0.035,-0.017,103.0,103.0,100.0,13.4,1505.2,326.6,-0.7,1.8,2470.594,13.28,0.054,129.8
2021-08-09T00:43:03,42.805,6.029,0.025,-0.014,0.006,102.0,103.0,101.0,13.3,1505.2,326.3,-0.7,1.8,2470.618,13.28,0.028,119.3
2021-08-09T00:46:03,42.805,6.029,0.007,-0.024,-0.006,101.0,103.0,102.0,13.4,1505.2,327.6,-0.8,1.8,2470.598,13.28,0.025,163.7
2021-08-09T00:49:03,42.805,6.029,0.033,-0.023,0.019,102.0,103.0,101.0,13.3,1505.2,330.0,-0.7,1.8,2470.644,13.28,0.04,124.9
2021-08-09T00:52:03,42.805,6.029,0.044,-0.03,0.004,103.0,103.0,101.0,13.3,1505.2,331.3,-0.7,1.8,2470.599,13.28,0.053,124.3
2021-08-09T00:55:03,42.805,6.029,0.029,-0.031,-0.024,100.0,103.0,102.0,13.3,1505.2,326.4,-0.8,1.8,2470.6,13.28,0.042,136.9
2021-08-09T00:58:03,42.805,6.029,0.032,-0.029,-0.03,103.0,102.0,101.0,13.4,1505.2,329.0,-0.7,1.8,2470.555,13.28,0.043,132.2
2021-08-09T01:04:03,42.805,6.029,0.018,-0.027,-0.012,104.0,105.0,102.0,13.3,1505.2,329.6,-0.8,1.8,2470.606,13.28,0.032,146.3
2021-08-09T01:07:03,42.805,6.029,0.03,-0.016,-0.01,105.0,103.0,101.0,13.4,1505.2,326.6,-0.7,1.8,2470.591,13.28,0.034,118.1
2021-08-09T01:10:03,42.805,6.029,0.037,-0.022,-0.022,104.0,104.0,101.0,13.4,1505.2,326.3,-0.7,1.8,2470.606,13.28,0.043,120.7
2021-08-09T01:13:03,42.805,6.029,0.05,-0.026,0.003,102.0,103.0,101.0,13.3,1505.2,329.1,-0.7,1.8,2470.595,13.28,0.056,117.5
2021-08-09T01:16:03,42.805,6.029,0.035,-0.018,0.008,104.0,104.0,102.0,13.4,1505.2,329.6,-0.7,1.8,2470.605,13.28,0.039,117.2
2021-08-09T01:19:03,42.805,6.029,0.009,-0.034,-0.02,103.0,104.0,99.0,13.4,1505.2,328.1,-0.8,1.8,2470.611,13.28,0.035,165.2
2021-08-09T01:22:03,42.805,6.029,0.04,-0.021,-0.016,103.0,103.0,100.0,13.3,1505.2,326.0,-0.8,1.9,2470.571,13.28,0.045,117.7
2021-08-09T01:25:03,42.805,6.029,0.016,-0.008,-0.034,104.0,100.0,101.0,13.4,1505.2,328.8,-0.8,1.8,2470.578,13.28,0.017,116.6
2021-08-09T01:28:03,42.805,6.029,0.025,-0.023,-0.041,103.0,102.0,101.0,13.4,1505.2,329.7,-0.7,1.8,2470.521,13.28,0.033,132.6
2021-08-09T01:31:03,42.805,6.029,0.018,0.004,0.005,103.0,103.0,100.0,13.3,1505.2,329.2,-0.8,1.8,2470.618,13.28,0.018,77.5
2021-08-09T01:34:03,42.805,6.029,0.032,-0.022,-0.016,102.0,103.0,101.0,13.4,1505.2,328.0,-0.8,1.8,2470.591,13.28,0.038,124.5
2021-08-09T01:37:03,42.805,6.029,0.027,-0.013,-0.005,104.0,101.0,101.0,13.4,1505.2,325.6,-0.8,1.8,2470.552,13.28,0.029,115.7
2021-08-09T01:40:03,42.805,6.029,0.012,-0.012,-0.027,102.0,104.0,101.0,13.4,1505.2,330.4,-0.7,1.8,2470.578,13.28,0.016,135.0
2021-08-09T01:43:03,42.805,6.029,0.035,0.0,-0.007,102.0,102.0,102.0,13.4,1505.2,326.5,-0.8,1.8,2470.54,13.28,0.035,90.0
2021-08-09T01:46:03,42.805,6.029,0.022,-0.029,-0.018,101.0,102.0,101.0,13.4,1505.2,330.3,-0.7,1.8,2470.544,13.28,0.036,142.8
2021-08-09T01:49:03,42.805,6.029,0.017,0.006,-0.005,103.0,103.0,100.0,13.4,1505.2,326.9,-0.7,1.8,2470.572,13.28,0.018,70.6
2021-08-09T01:52:03,42.805,6.029,0.036,-0.017,0.002,103.0,104.0,101.0,13.4,1505.2,326.3,-0.7,1.8,2470.555,13.28,0.039,115.3
2021-08-09T01:55:03,42.805,6.029,0.033,-0.014,-0.032,104.0,102.0,100.0,13.4,1505.2,330.2,-0.7,1.8,2470.515,13.28,0.035,113.0
2021-08-09T01:58:03,42.805,6.029,0.027,-0.011,-0.01,104.0,102.0,100.0,13.4,1505.2,328.8,-0.8,1.8,2470.506,13.28,0.029,112.2
2021-08-09T02:04:03,42.805,6.029,0.025,-0.021,-0.044,103.0,102.0,101.0,13.4,1505.2,326.5,-0.7,1.8,2470.582,13.28,0.032,130.0
2021-08-09T02:07:03,42.805,6.029,0.012,-0.002,-0.014,103.0,103.0,100.0,13.4,1505.2,329.1,-0.8,1.8,2470.566,13.28,0.012,99.5
2021-08-09T02:10:03,42.805,6.029,0.042,-0.027,0.013,102.0,103.0,100.0,13.3,1505.2,328.9,-0.8,1.8,2470.548,13.28,0.049,122.7
2021-08-09T02:13:03,42.805,6.029,0.015,-0.037,-0.004,103.0,102.0,100.0,13.4,1505.2,328.8,-0.8,1.8,2470.546,13.28,0.039,157.9
2021-08-09T02:16:03,42.805,6.029,0.016,-0.024,-0.026,104.0,101.0,101.0,13.4,1505.2,330.3,-0.7,1.8,2470.557,13.28,0.028,146.3
2021-08-09T02:19:03,42.805,6.029,0.006,-0.026,-0.031,104.0,102.0,100.0,13.3,1505.2,330.7,-0.7,1.8,2470.559,13.28,0.026,167.0
2021-08-09T02:22:03,42.805,6.029,0.03,-0.013,-0.005,102.0,102.0,102.0,13.4,1505.2,330.0,-0.8,1.8,2470.55,13.28,0.032,113.4
2021-08-09T02:25:03,42.805,6.029,0.027,-0.024,-0.004,104.0,105.0,100.0,13.3,1505.2,326.6,-0.7,1.8,2470.589,13.28,0.036,131.6
2021-08-09T02:28:03,42.805,6.029,0.015,0.005,-0.008,102.0,102.0,101.0,13.4,1505.2,327.5,-0.8,1.8,2470.571,13.28,0.015,71.6
2021-08-09T02:31:03,42.805,6.029,0.012,-0.008,-0.017,104.0,101.0,101.0,13.3,1505.2,325.7,-0.8,1.8,2470.568,13.28,0.014,123.7
2021-08-09T02:34:03,42.805,6.029,0.036,-0.016,0.002,102.0,101.0,102.0,13.4,1505.2,330.6,-0.8,1.8,2470.518,13.28,0.039,114.0
2021-08-09T02:37:03,42.805,6.029,0.039,-0.001,0.011,102.0,102.0,101.0,13.4,1505.2,327.8,-0.8,1.8,2470.566,13.28,0.039,91.5
2021-08-09T02:40:03,42.805,6.029,0.023,-0.003,0.024,103.0,102.0,101.0,13.4,1505.2,328.1,-0.8,1.9,2470.538,13.28,0.023,97.4
2021-08-09T02:43:03,42.805,6.029,0.019,-0.008,0.019,102.0,103.0,100.0,13.3,1505.2,329.0,-0.8,1.8,2470.524,13.28,0.02,112.8
2021-08-09T02:46:03,42.805,6.029,0.015,-0.001,-0.002,102.0,103.0,101.0,13.4,1505.2,327.8,-0.7,1.8,2470.547,13.28,0.015,93.8
2021-08-09T02:49:03,42.805,6.029,0.005,0.004,-0.015,104.0,102.0,100.0,13.3,1505.2,326.1,-0.7,1.8,2470.539,13.28,0.006,51.3
2021-08-09T02:52:03,42.805,6.029,0.023,-0.013,-0.003,103.0,100.0,101.0,13.4,1505.2,329.2,-0.7,1.8,2470.544,13.28,0.026,119.5
2021-08-09T02:55:03,42.805,6.029,0.038,-0.009,0.003,102.0,103.0,100.0,13.4,1505.2,327.1,-0.8,1.8,2470.55,13.28,0.039,103.3
2021-08-09T02:58:03,42.805,6.029,0.019,-0.008,-0.024,102.0,103.0,101.0,13.4,1505.2,325.3,-0.7,1.8,2470.553,13.28,0.02,112.8
2021-08-09T03:04:03,42.805,6.029,0.03,-0.026,0.002,102.0,103.0,100.0,13.4,1505.2,330.7,-0.8,1.8,2470.589,13.28,0.039,130.9
2021-08-09T03:07:03,42.805,6.029,0.048,-0.024,0.001,102.0,101.0,101.0,13.3,1505.2,326.9,-0.8,1.9,2470.544,13.28,0.053,116.6
2021-08-09T03:10:03,42.805,6.029,0.005,-0.013,0.001,102.0,103.0,101.0,13.4,1505.2,327.1,-0.8,1.8,2470.57,13.28,0.013,159.0
2021-08-09T03:13:03,42.805,6.029,0.009,-0.024,-0.036,102.0,104.0,100.0,13.4,1505.2,325.7,-0.8,1.8,2470.61,13.28,0.025,159.4
2021-08-09T03:16:03,42.805,6.029,0.011,-0.027,-0.015,102.0,103.0,100.0,13.3,1505.2,329.9,-0.8,1.8,2470.535,13.28,0.029,157.8
2021-08-09T03:19:03,42.805,6.029,0.025,-0.01,-0.003,102.0,102.0,100.0,13.4,1505.2,326.7,-0.7,1.8,2470.545,13.28,0.026,111.8
2021-08-09T03:22:03,42.805,6.029,0.01,-0.009,-0.035,102.0,100.0,100.0,13.3,1505.2,327.0,-0.8,1.8,2470.556,13.28,0.013,132.0
2021-08-09T03:25:03,42.805,6.029,0.025,-0.032,-0.025,102.0,101.0,101.0,13.4,1505.2,326.8,-0.7,1.8,2470.543,13.28,0.04,142.0
2021-08-09T03:28:03,42.805,6.029,0.033,-0.018,-0.033,103.0,102.0,100.0,13.4,1505.2,329.5,-0.7,1.8,2470.545,13.28,0.037,118.6
2021-08-09T03:31:03,42.805,6.029,0.006,-0.011,0.035,102.0,104.0,101.0,13.4,1505.2,328.1,-0.7,1.8,2470.566,13.28,0.012,151.4
2021-08-09T03:34:03,42.805,6.029,0.037,-0.011,0.002,103.0,102.0,100.0,13.4,1505.2,328.1,-0.7,1.8,2470.531,13.28,0.038,106.6
2021-08-09T03:37:03,42.805,6.029,0.027,-0.006,-0.011,102.0,102.0,101.0,13.3,1505.2,325.5,-0.8,1.8,2470.566,13.28,0.027,102.5
2021-08-09T03:40:03,42.805,6.029,0.024,-0.01,0.001,101.0,103.0,101.0,13.4,1505.2,329.1,-0.7,1.8,2470.568,13.28,0.026,112.6
2021-08-09T03:43:03,42.805,6.029,0.033,-0.002,0.021,101.0,102.0,101.0,13.4,1505.2,327.5,-0.8,1.8,2470.558,13.28,0.033,93.5
2021-08-09T03:46:03,42.805,6.029,0.033,-0.016,0.012,100.0,101.0,101.0,13.4,1505.2,327.4,-0.7,1.8,2470.573,13.28,0.036,115.9
2021-08-09T03:49:03,42.805,6.029,0.034,-0.001,0.002,101.0,101.0,101.0,13.4,1505.2,327.5,-0.7,1.8,2470.553,13.28,0.034,91.7
2021-08-09T03:52:03,42.805,6.029,0.01,-0.004,0.0,103.0,101.0,101.0,13.4,1505.2,325.5,-0.7,1.8,2470.59,13.28,0.01,111.8
2021-08-09T03:55:03,42.805,6.029,0.022,-0.003,-0.004,101.0,103.0,102.0,13.4,1505.2,329.9,-0.8,1.8,2470.564,13.28,0.022,97.8
2021-08-09T03:58:03,42.805,6.029,0.029,-0.018,0.004,102.0,103.0,101.0,13.3,1505.2,329.2,-0.8,1.8,2470.565,13.28,0.034,121.8
2021-08-09T04:04:03,42.805,6.029,0.029,-0.016,0.014,102.0,102.0,101.0,13.4,1505.2,328.0,-0.8,1.8,2470.548,13.28,0.033,118.9
2021-08-09T04:07:03,42.805,6.029,0.026,0.005,-0.007,102.0,102.0,101.0,13.4,1505.2,328.9,-0.7,1.8,2470.587,13.28,0.026,79.1
2021-08-09T04:10:03,42.805,6.029,0.034,-0.012,-0.018,103.0,102.0,100.0,13.3,1505.2,325.6,-0.8,1.8,2470.551,13.28,0.036,109.4
2021-08-09T04:13:03,42.805,6.029,0.021,-0.028,-0.024,103.0,103.0,101.0,13.3,1505.2,326.8,-0.8,1.8,2470.571,13.28,0.035,143.1
2021-08-09T04:16:03,42.805,6.029,0.023,-0.025,-0.031,102.0,102.0,101.0,13.3,1505.2,327.0,-0.8,1.8,2470.604,13.28,0.033,137.4
2021-08-09T04:19:03,42.805,6.029,0.03,-0.001,0.012,101.0,103.0,101.0,13.4,1505.2,326.9,-0.8,1.9,2470.565,13.28,0.03,91.9
2021-08-09T04:22:03,42.805,6.029,0.003,-0.019,-0.031,104.0,102.0,101.0,13.4,1505.2,327.0,-0.8,1.8,2470.564,13.28,0.019,171.0
2021-08-09T04:25:03,42.805,6.029,0.027,0.009,0.01,101.0,102.0,101.0,13.4,1505.2,327.5,-0.8,1.9,2470.59,13.28,0.028,71.6
2021-08-09T04:28:03,42.805,6.029,0.015,-0.014,0.0,102.0,104.0,99.0,13.3,1505.2,330.2,-0.7,1.8,2470.604,13.28,0.02,133.0
2021-08-09T04:31:03,42.805,6.029,0.039,-0.035,0.0,101.0,104.0,101.0,13.4,1505.2,326.4,-0.7,1.8,2470.641,13.28,0.052,131.9
2021-08-09T04:34:03,42.805,6.029,0.016,-0.012,0.001,102.0,103.0,101.0,13.4,1505.2,325.2,-0.7,1.8,2470.559,13.28,0.02,126.9
2021-08-09T04:37:03,42.805,6.029,0.04,-0.012,0.022,103.0,103.0,100.0,13.3,1505.2,329.7,-0.8,1.8,2470.534,13.28,0.041,106.7
2021-08-09T04:40:03,42.805,6.029,0.019,0.0,-0.02,103.0,102.0,101.0,13.4,1505.2,326.9,-0.7,1.8,2470.571,13.28,0.019,90.0
2021-08-09T04:43:03,42.805,6.029,0.017,-0.019,0.002,102.0,103.0,101.0,13.3,1505.2,328.6,-0.7,1.8,2470.584,13.28,0.025,138.2
2021-08-09T04:46:03,42.805,6.029,0.017,-0.002,-0.025,103.0,102.0,102.0,13.3,1505.2,328.1,-0.7,1.8,2470.587,13.28,0.017,96.7
2021-08-09T04:49:03,42.805,6.029,0.014,0.006,0.025,103.0,101.0,101.0,13.3,1505.2,328.4,-0.7,1.8,2470.612,13.28,0.015,66.8
2021-08-09T04:52:03,42.805,6.029,0.026,-0.015,-0.01,103.0,103.0,101.0,13.3,1505.2,328.6,-0.8,1.8,2470.583,13.28,0.03,120.0
2021-08-09T04:55:03,42.805,6.029,0.018,-0.01,-0.019,102.0,104.0,100.0,13.3,1505.2,327.8,-0.7,1.8,2470.588,13.28,0.02,119.1
2021-08-09T04:58:03,42.805,6.029,0.022,-0.024,0.002,102.0,102.0,101.0,13.3,1505.2,327.9,-0.7,1.8,2470.583,13.28,0.032,137.5
2021-08-09T05:04:03,42.805,6.029,0.022,-0.015,-0.001,101.0,103.0,102.0,13.4,1505.2,326.6,-0.8,1.8,2470.657,13.28,0.026,124.3
2021-08-09T05:07:03,42.805,6.029,0.023,-0.021,0.011,103.0,103.0,101.0,13.4,1505.2,328.6,-0.8,1.9,2470.635,13.28,0.031,132.4
2021-08-09T05:10:03,42.805,6.029,0.02,-0.006,-0.009,103.0,103.0,101.0,13.4,1505.2,325.7,-0.7,1.8,2470.649,13.28,0.02,106.7
2021-08-09T05:13:03,42.805,6.029,0.022,-0.02,-0.012,102.0,103.0,101.0,13.3,1505.2,325.2,-0.8,1.8,2470.637,13.28,0.029,132.3
2021-08-09T05:16:03,42.805,6.029,0.012,-0.023,-0.015,103.0,103.0,101.0,13.4,1505.2,330.6,-0.7,1.8,2470.587,13.28,0.025,152.4
2021-08-09T05:19:03,42.805,6.029,0.034,-0.033,-0.014,103.0,103.0,102.0,13.4,1505.2,329.3,-0.8,1.8,2470.613,13.28,0.047,134.1
2021-08-09T05:22:03,42.805,6.029,0.017,-0.011,-0.009,103.0,102.0,101.0,13.3,1505.2,327.1,-0.8,1.8,2470.605,13.28,0.02,122.9
2021-08-09T05:25:03,42.805,6.029,0.027,-0.021,-0.009,104.0,102.0,101.0,13.4,1505.2,327.7,-0.8,1.8,2470.626,13.28,0.034,127.9
2021-08-09T05:28:03,42.805,6.029,0.023,-0.012,-0.022,102.0,103.0,102.0,13.3,1505.2,328.9,-0.7,1.8,2470.639,13.28,0.025,117.6
2021-08-09T05:31:03,42.805,6.029,0.014,-0.023,0.007,103.0,103.0,101.0,13.4,1505.2,329.4,-0.8,1.8,2470.628,13.28,0.026,148.7
2021-08-09T05:34:03,42.805,6.029,0.027,-0.016,-0.01,102.0,102.0,101.0,13.4,1505.2,325.8,-0.7,1.9,2470.626,13.28,0.031,120.7
2021-08-09T05:37:03,42.805,6.029,0.038,-0.027,-0.001,103.0,103.0,101.0,13.3,1505.2,328.4,-0.8,1.8,2470.606,13.28,0.046,125.4
2021-08-09T05:40:03,42.805,6.029,0.028,-0.029,-0.02,103.0,103.0,101.0,13.4,1505.2,328.9,-0.8,1.8,2470.622,13.28,0.04,136.0
2021-08-09T05:43:03,42.805,6.029,0.008,-0.011,-0.013,104.0,102.0,101.0,13.4,1505.2,325.9,-0.7,1.8,2470.615,13.28,0.013,144.0
2021-08-09T05:46:03,42.805,6.029,0.027,-0.012,-0.008,103.0,102.0,101.0,13.4,1505.2,328.5,-0.8,1.8,2470.671,13.28,0.029,114.0
2021-08-09T05:49:03,42.805,6.029,0.023,-0.001,0.021,104.0,102.0,100.0,13.3,1505.2,328.9,-0.7,1.9,2470.625,13.28,0.023,92.5
2021-08-09T05:52:03,42.805,6.029,0.023,-0.023,-0.013,104.0,101.0,101.0,13.4,1505.2,329.1,-0.7,1.8,2470.652,13.28,0.032,135.0
2021-08-09T05:55:03,42.805,6.029,0.019,-0.018,-0.004,103.0,102.0,100.0,13.3,1505.2,327.0,-0.7,1.8,2470.639,13.28,0.026,133.5
2021-08-09T05:58:03,42.805,6.029,0.022,-0.009,-0.009,102.0,102.0,100.0,13.4,1505.2,325.3,-0.7,1.8,2470.653,13.28,0.023,112.2
2021-08-09T06:04:03,42.805,6.029,0.013,-0.003,0.008,102.0,103.0,101.0,13.4,1505.2,327.7,-0.7,1.8,2470.715,13.28,0.013,103.0
2021-08-09T06:07:03,42.805,6.029,0.029,-0.035,-0.01,102.0,102.0,101.0,13.4,1505.2,327.8,-0.8,1.8,2470.669,13.28,0.045,140.4
2021-08-09T06:10:03,42.805,6.029,0.022,-0.008,0.009,102.0,103.0,101.0,13.4,1505.2,328.2,-0.8,1.8,2470.679,13.28,0.023,110.0
2021-08-09T06:13:03,42.805,6.029,0.014,-0.005,-0.033,103.0,103.0,102.0,13.3,1505.2,328.3,-0.8,1.8,2470.683,13.28,0.014,109.6
2021-08-09T06:16:03,42.805,6.029,0.024,-0.017,0.016,102.0,103.0,101.0,13.4,1505.2,329.1,-0.8,1.8,2470.644,13.28,0.029,125.3
2021-08-09T06:19:03,42.805,6.029,0.033,-0.021,-0.011,102.0,102.0,101.0,13.3,1505.2,325.7,-0.8,1.8,2470.682,13.28,0.039,122.5
2021-08-09T06:22:03,42.805,6.029,0.025,-0.02,-0.013,102.0,102.0,101.0,13.4,1505.2,327.7,-0.8,1.8,2470.663,13.28,0.032,128.7
2021-08-09T06:25:03,42.805,6.029,0.043,-0.005,-0.023,104.0,101.0,101.0,13.4,1505.2,326.4,-0.7,1.8,2470.646,13.28,0.043,96.6
2021-08-09T06:28:03,42.805,6.029,0.034,-0.006,-0.004,103.0,102.0,101.0,13.4,1505.2,329.3,-0.7,1.8,2470.675,13.28,0.034,100.0
2021-08-09T06:31:03,42.805,6.029,0.032,-0.006,0.026,102.0,102.0,101.0,13.4,1505.2,326.3,-0.7,1.8,2470.707,13.28,0.032,100.6
2021-08-09T06:34:03,42.805,6.029,0.035,-0.019,0.009,103.0,103.0,101.0,13.4,1505.2,328.7,-0.8,1.8,2470.688,13.28,0.039,118.5
2021-08-09T06:37:03,42.805,6.029,0.018,-0.008,-0.022,101.0,103.0,102.0,13.4,1505.2,327.7,-0.8,1.8,2470.691,13.28,0.019,114.0
2021-08-09T06:40:03,42.805,6.029,0.04,-0.037,0.014,102.0,103.0,100.0,13.4,1505.2,327.2,-0.8,1.8,2470.688,13.28,0.054,132.8
2021-08-09T06:43:03,42.805,6.029,0.028,-0.033,0.018,102.0,102.0,101.0,13.4,1505.2,329.2,-0.7,1.8,2470.646,13.28,0.043,139.7
2021-08-09T06:46:03,42.805,6.029,0.012,-0.017,-0.016,102.0,103.0,102.0,13.4,1505.2,325.7,-0.8,1.8,2470.638,13.28,0.02,144.8
2021-08-09T06:49:03,42.805,6.029,0.017,0.01,0.013,103.0,103.0,100.0,13.4,1505.2,325.6,-0.7,1.8,2470.699,13.28,0.019,59.5
2021-08-09T06:52:03,42.805,6.029,0.032,-0.016,-0.023,103.0,102.0,100.0,13.4,1505.2,328.8,-0.8,1.8,2470.689,13.28,0.035,116.6
2021-08-09T06:55:03,42.805,6.029,0.044,0.008,0.005,103.0,101.0,101.0,13.3,1505.2,326.7,-0.8,1.9,2470.662,13.28,0.044,79.7
2021-08-09T06:58:03,42.805,6.029,0.029,-0.029,-0.018,102.0,101.0,101.0,13.4,1505.2,326.9,-0.7,1.9,2470.674,13.28,0.041,135.0
2021-08-09T07:04:03,42.805,6.029,0.026,-0.018,0.014,102.0,102.0,101.0,13.3,1505.2,325.0,-0.8,1.8,2470.736,13.28,0.031,124.7
2021-08-09T07:07:03,42.805,6.029,0.027,0.002,-0.006,102.0,103.0,101.0,13.4,1505.2,329.2,-0.7,1.8,2470.71,13.28,0.027,85.8
2021-08-09T07:10:03,42.805,6.029,0.03,-0.003,-0.005,101.0,103.0,101.0,13.4,1505.2,327.7,-0.8,1.8,2470.705,13.28,0.03,95.7
2021-08-09T07:13:03,42.805,6.029,0.01,0.0,0.01,104.0,103.0,100.0,13.4,1505.2,330.7,-0.7,1.8,2470.709,13.28,0.01,90.0
2021-08-09T07:16:03,42.805,6.029,0.017,-0.004,-0.014,103.0,104.0,101.0,13.4,1505.2,327.2,-0.7,1.8,2470.719,13.28,0.017,103.2
2021-08-09T07:19:03,42.805,6.029,0.028,-0.012,-0.015,102.0,104.0,101.0,13.4,1505.2,325.8,-0.7,1.8,2470.668,13.28,0.03,113.2
2021-08-09T07:22:03,42.805,6.029,0.04,-0.028,0.013,102.0,104.0,100.0,13.4,1505.2,329.1,-0.8,1.8,2470.729,13.28,0.048,125.0
2021-08-09T07:25:03,42.805,6.029,-0.007,-0.023,-0.006,103.0,102.0,100.0,13.4,1505.2,325.5,-0.8,1.8,2470.666,13.28,0.024,196.9
2021-08-09T07:28:03,42.805,6.029,0.037,-0.008,0.008,103.0,102.0,101.0,13.4,1505.2,328.2,-0.8,1.8,2470.678,13.28,0.037,102.2
2021-08-09T07:31:03,42.805,6.029,0.028,-0.01,0.006,104.0,102.0,101.0,13.4,1505.2,328.9,-0.7,1.8,2470.638,13.28,0.029,109.6
2021-08-09T07:34:03,42.805,6.029,0.024,-0.018,-0.03,103.0,103.0,101.0,13.3,1505.2,328.7,-0.7,1.8,2470.657,13.28,0.03,126.9
2021-08-09T07:37:03,42.805,6.029,0.004,-0.009,-0.006,103.0,106.0,101.0,13.4,1505.2,326.7,-0.8,1.8,2470.69,13.28,0.009,156.0
2021-08-09T07:40:03,42.805,6.029,0.026,-0.004,0.018,102.0,102.0,101.0,13.4,1505.2,327.2,-0.7,1.8,2470.702,13.28,0.026,98.7
2021-08-09T07:43:03,42.805,6.029,0.025,0.015,-0.005,103.0,102.0,101.0,13.4,1505.2,328.6,-0.8,1.8,2470.702,13.28,0.029,59.0
2021-08-09T07:46:03,42.805,6.029,0.05,-0.005,0.003,104.0,101.0,101.0,13.4,1505.2,327.9,-0.7,1.8,2470.635,13.28,0.05,95.7
2021-08-09T07:49:03,42.805,6.029,0.01,0.0,-0.006,102.0,104.0,102.0,13.3,1505.2,328.7,-0.8,1.8,2470.714,13.28,0.01,90.0
2021-08-09T07:52:03,42.805,6.029,0.035,-0.035,-0.012,102.0,102.0,102.0,13.4,1505.2,328.6,-0.7,1.8,2470.679,13.28,0.049,135.0
2021-08-09T07:55:03,42.805,6.029,0.0,-0.01,-0.024,103.0,102.0,101.0,13.4,1505.2,327.7,-0.8,1.8,2470.691,13.28,0.01,180.0
2021-08-09T07:58:03,42.805,6.029,0.037,-0.008,-0.008,102.0,102.0,102.0,13.4,1505.2,327.0,-0.8,1.9,2470.665,13.28,0.037,102.2
2021-08-09T08:04:03,42.805,6.029,0.021,-0.017,-0.003,103.0,103.0,101.0,13.4,1505.2,329.6,-0.7,1.8,2470.734,13.28,0.027,129.0
2021-08-09T08:07:03,42.805,6.029,0.006,-0.027,0.0,103.0,104.0,101.0,13.4,1505.2,327.9,-0.8,1.8,2470.724,13.28,0.027,167.5
2021-08-09T08:10:03,42.805,6.029,0.019,-0.027,-0.025,104.0,103.0,101.0,13.4,1505.2,327.8,-0.8,1.8,2470.689,13.28,0.033,144.9
2021-08-09T08:13:03,42.805,6.029,0.024,-0.019,0.009,102.0,103.0,101.0,13.3,1505.2,325.7,-0.8,1.8,2470.714,13.28,0.03,128.4
2021-08-09T08:16:03,42.805,6.029,0.011,-0.006,-0.011,102.0,103.0,100.0,13.4,1505.2,325.3,-0.7,1.8,2470.703,13.28,0.012,118.6
2021-08-09T08:19:03,42.805,6.029,0.034,-0.012,0.01,102.0,104.0,101.0,13.3,1505.2,330.7,-0.8,1.8,2470.693,13.28,0.036,109.4
2021-08-09T08:22:03,42.805,6.029,0.031,-0.006,-0.014,103.0,103.0,101.0,13.4,1505.2,327.8,-0.8,1.8,2470.66,13.28,0.031,101.0
2021-08-09T08:25:03,42.805,6.029,0.022,-0.017,-0.023,103.0,102.0,101.0,13.3,1505.2,329.4,-0.8,1.8,2470.702,13.28,0.027,127.7
2021-08-09T08:28:03,42.805,6.029,0.016,-0.009,-0.003,102.0,102.0,101.0,13.3,1505.2,327.5,-0.7,1.8,2470.714,13.28,0.018,119.4
2021-08-09T08:31:03,42.805,6.029,0.022,0.0,0.015,104.0,102.0,101.0,13.4,1505.2,330.0,-0.7,1.8,2470.657,13.28,0.022,90.0
2021-08-09T08:34:03,42.805,6.029,0.022,-0.012,-0.007,104.0,103.0,101.0,13.4,1505.2,327.0,-0.8,1.8,2470.681,13.28,0.025,118.6
2021-08-09T08:37:03,42.805,6.029,0.024,-0.025,-0.013,102.0,102.0,101.0,13.3,1505.2,325.0,-0.8,1.8,2470.651,13.28,0.034,136.2
2021-08-09T08:40:03,42.805,6.029,0.004,-0.018,-0.018,102.0,103.0,100.0,13.4,1505.2,326.7,-0.8,1.8,2470.681,13.28,0.018,167.5
2021-08-09T08:43:03,42.805,6.029,0.033,-0.024,0.005,102.0,102.0,101.0,13.4,1505.2,330.9,-0.7,1.8,2470.69,13.28,0.04,126.0
2021-08-09T08:46:03,42.805,6.029,0.02,-0.02,-0.042,102.0,103.0,100.0,13.4,1505.2,327.2,-0.7,1.8,2470.648,13.28,0.028,135.0
2021-08-09T08:49:03,42.805,6.029,0.034,-0.023,0.025,102.0,102.0,100.0,13.4,1505.2,328.9,-0.7,1.8,2470.683,13.28,0.041,124.1
2021-08-09T08:52:03,42.805,6.029,0.025,-0.028,0.0,102.0,102.0,101.0,13.4,1505.2,327.0,-0.7,1.8,2470.638,13.28,0.037,138.2
2021-08-09T08:55:03,42.805,6.029,0.021,-0.003,0.003,102.0,101.0,100.0,13.4,1505.2,328.3,-0.7,1.8,2470.669,13.28,0.021,98.1
2021-08-09T08:58:03,42.805,6.029,0.019,0.019,0.027,101.0,103.0,101.0,13.4,1505.2,330.3,-0.7,1.8,2470.696,13.28,0.026,45.0
2021-08-09T09:04:03,42.805,6.029,0.018,-0.01,-0.054,102.0,102.0,101.0,13.3,1505.2,329.5,-0.7,1.8,2470.698,13.28,0.02,119.1
2021-08-09T09:07:03,42.805,6.029,0.048,-0.015,-0.021,102.0,102.0,101.0,13.4,1505.2,329.1,-0.8,1.8,2470.703,13.28,0.05,107.4
2021-08-09T09:10:03,42.805,6.029,0.029,-0.02,0.004,102.0,103.0,101.0,13.4,1505.2,324.7,-0.8,1.8,2470.718,13.28,0.035,124.6
2021-08-09T09:13:03,42.805,6.029,0.023,-0.008,0.021,102.0,104.0,101.0,13.4,1505.2,329.8,-0.7,1.8,2470.709,13.28,0.024,109.2
2021-08-09T09:16:03,42.805,6.029,0.039,-0.028,-0.003,102.0,103.0,101.0,13.4,1505.2,329.8,-0.8,1.9,2470.707,13.28,0.048,125.7
2021-08-09T09:19:03,42.805,6.029,0.03,-0.005,0.014,103.0,102.0,101.0,13.4,1505.2,327.1,-0.7,1.8,2470.673,13.28,0.03,99.5
2021-08-09T09:22:03,42.805,6.029,0.036,-0.01,0.014,103.0,103.0,101.0,13.3,1505.2,326.9,-0.8,1.8,2470.679,13.28,0.037,105.5
2021-08-09T09:25:03,42.805,6.029,0.045,-0.008,0.022,102.0,102.0,101.0,13.3,1505.2,325.6,-0.7,1.8,2470.678,13.28,0.045,100.1
2021-08-09T09:28:03,42.805,6.029,0.013,-0.009,-0.021,102.0,103.0,101.0,13.4,1505.2,330.2,-0.7,1.8,2470.669,13.28,0.015,124.7
2021-08-09T09:31:03,42.805,6.029,0.03,-0.017,-0.003,102.0,103.0,101.0,13.4,1505.2,326.8,-0.8,1.8,2470.658,13.28,0.034,119.5
2021-08-09T09:34:03,42.805,6.029,0.023,-0.028,-0.011,102.0,103.0,101.0,13.4,1505.2,329.5,-0.8,1.8,2470.664,13.28,0.036,140.6
2021-08-09T09:37:03,42.805,6.029,0.025,-0.008,-0.009,102.0,102.0,100.0,13.4,1505.2,325.1,-0.8,1.8,2470.662,13.28,0.026,107.7
2021-08-09T09:40:03,42.805,6.029,0.036,-0.015,0.002,103.0,103.0,100.0,13.4,1505.2,326.2,-0.7,1.8,2470.646,13.28,0.039,112.6
2021-08-09T09:43:03,42.805,6.029,0.04,-0.011,-0.018,102.0,103.0,101.0,13.4,1505.2,325.7,-0.8,1.8,2470.672,13.28,0.041,105.4
2021-08-09T09:46:03,42.805,6.029,0.047,0.008,-0.016,102.0,103.0,101.0,13.3,1505.2,327.4,-0.8,1.8,2470.668,13.28,0.047,80.3
2021-08-09T09:49:03,42.805,6.029,0.024,-0.008,-0.011,102.0,103.0,101.0,13.4,1505.2,328.6,-0.8,1.8,2470.645,13.28,0.025,108.4
2021-08-09T09:52:03,42.805,6.029,0.026,-0.018,-0.006,102.0,103.0,101.0,13.4,1505.2,326.3,-0.7,1.8,2470.599,13.28,0.031,124.7
2021-08-09T09:55:03,42.805,6.029,0.048,-0.002,0.003,102.0,102.0,101.0,13.4,1505.2,329.0,-0.7,1.8,2470.631,13.28,0.048,92.4
2021-08-09T09:58:03,42.805,6.029,0.03,-0.021,0.009,101.0,103.0,101.0,13.4,1505.2,326.1,-0.7,1.8,2470.621,13.28,0.036,125.0